Track STARLINK-1517 now! 10-day predictions STARLINK-1517 is classified as:
1 45787U 20038BK 21017.82977718 .00000291 00000-0 39162-4 0 9991 2 45787 53.0030 342.1698 0001524 75.8147 284.3010 15.05577228 33872